W7JFO-3 Weather Reports


Display with metric or nautical units.
time (UTC)temp
F
wind
direction
speed
MPH
gust
MPH
rain 1hr
in
rain 24hr
in
rain mn
in
humidity
%
barometer
mb
20260506173141 52 43 4.0 6.0 0.00 0.00 0.00 47 1012.8
20260506171641 52 45 3.0 6.0 0.00 0.00 0.00 47 1013.4
20260506170141 51 58 3.0 5.0 0.00 0.00 0.00 47 1013.3
20260506164641 51 17 3.0 7.0 0.00 0.00 0.00 49 1013.3
20260506163141 51 32 2.0 3.0 0.00 0.00 0.00 50 1013.4
20260506161641 49 47 4.0 13.0 0.00 0.00 0.00 50 1013.5
20260506160141 47 85 4.0 8.0 0.00 0.00 0.00 49 1013.7
20260506154641 46 85 3.0 5.0 0.00 0.00 0.00 52 1013.7
20260506153141 45 84 3.0 7.0 0.00 0.00 0.00 53 1013.9
20260506151641 47 74 1.0 6.0 0.00 0.00 0.00 53 1013.9
20260506150141 47 133 1.0 2.0 0.00 0.00 0.00 57 1013.8
20260506144641 46 100 2.0 5.0 0.00 0.00 0.00 50 1013.8
20260506143141 45 88 2.0 4.0 0.00 0.00 0.00 51 1013.9
20260506141641 45 79 1.0 3.0 0.00 0.00 0.00 53 1014.1
20260506140141 44 96 2.0 4.0 0.00 0.00 0.00 51 1014.1
20260506134642 43 69 2.0 4.0 0.00 0.00 0.00 51 1014.1
20260506133141 43 105 1.0 2.0 0.00 0.00 0.00 51 1014.0
20260506131641 43 107 1.0 2.0 0.00 0.00 0.00 48 1014.0
20260506130141 42 107 1.0 1.0 0.00 0.00 0.00 48 1014.1
20260506124641 41 107 3.0 7.0 0.00 0.00 0.00 49 1014.4
20260506123141 41 93 3.0 6.0 0.00 0.00 0.00 50 1014.3
20260506121641 41 108 1.0 5.0 0.00 0.00 0.00 49 1014.4
20260506120141 41 107 2.0 4.0 0.00 0.00 0.00 50 1014.0
20260506114641 41 117 2.0 3.0 0.00 0.00 0.00 49 1014.1
20260506113141 42 140 3.0 4.0 0.00 0.00 0.00 49 1014.2
20260506111642 42 140 3.0 7.0 0.00 0.00 0.00 49 1014.4
20260506110142 42 144 5.0 7.0 0.00 0.00 0.00 48 1014.4
20260506104642 42 139 5.0 10.0 0.00 0.00 0.00 47 1014.6
20260506103142 42 139 7.0 11.0 0.00 0.00 0.00 48 1014.5
20260506101642 42 138 8.0 9.0 0.00 0.00 0.00 47 1014.2
20260506100142 42 124 8.0 11.0 0.00 0.00 0.00 48 1014.2
20260506094642 42 139 8.0 11.0 0.00 0.00 0.00 48 1014.2
20260506093142 42 130 7.0 10.0 0.00 0.00 0.00 47 1014.3
20260506091642 42 148 5.0 10.0 0.00 0.00 0.00 47 1014.3
20260506090142 42 185 4.0 9.0 0.00 0.00 0.00 48 1014.3
20260506084642 42 142 11.0 16.0 0.00 0.00 0.00 48 1014.5
20260506083142 43 142 13.0 18.0 0.00 0.00 0.00 47 1014.5
20260506081642 43 140 13.0 18.0 0.00 0.00 0.00 46 1014.4
20260506080142 43 135 14.0 18.0 0.00 0.00 0.00 46 1014.1
20260506073143 43 144 12.0 16.0 0.00 0.00 0.00 48 1014.4
20260506071642 42 140 13.0 16.0 0.00 0.00 0.00 49 1014.4
20260506070142 43 140 11.0 13.0 0.00 0.00 0.00 49 1014.5
20260506061642 43 147 14.0 18.0 0.00 0.00 0.00 48 1014.3
20260506060142 44 126 12.0 16.0 0.00 0.00 0.00 48 1014.1
20260506050142 45 131 16.0 22.0 0.00 0.00 0.00 46 1014.5
20260506044642 45 153 16.0 21.0 0.00 0.00 0.00 46 1014.4
20260506043142 45 132 15.0 20.0 0.00 0.00 0.00 47 1014.3
20260506041642 45 111 16.0 27.0 0.00 0.00 0.00 47 1014.0
20260506040142 46 122 15.0 22.0 0.00 0.00 0.00 47 1013.9
20260506034642 46 95 15.0 23.0 0.00 0.00 0.00 46 1013.7
20260506033142 46 125 15.0 21.0 0.00 0.00 0.00 45 1013.4
20260506031642 47 111 15.0 22.0 0.00 0.00 0.00 45 1013.0
20260506030142 47 121 13.0 21.0 0.00 0.00 0.00 44 1013.1
20260506024642 48 101 14.0 23.0 0.00 0.00 0.00 43 1013.0
20260506023142 49 122 12.0 19.0 0.00 0.00 0.00 41 1012.6
20260506021642 50 107 10.0 22.0 0.00 0.00 0.00 41 1012.4
20260506020142 50 70 11.0 16.0 0.00 0.00 0.00 40 1012.4
20260506014642 51 81 11.0 18.0 0.00 0.00 0.00 40 1012.5
20260506013142 51 96 10.0 19.0 0.00 0.00 0.00 39 1012.6
20260506011642 52 80 9.0 15.0 0.00 0.00 0.00 37 1012.2
20260506010143 53 69 7.0 13.0 0.00 0.00 0.00 37 1012.3
20260506004643 53 73 8.0 14.0 0.00 0.00 0.00 36 1012.3
20260506003143 53 66 9.0 14.0 0.00 0.00 0.00 36 1012.6
20260506001643 54 132 9.0 15.0 0.00 0.00 0.00 35 1012.4
20260506000143 55 74 4.0 11.0 0.00 0.00 0.00 34 1012.4
20260505234643 55 80 6.0 10.0 0.00 0.00 0.00 35 1012.8
20260505233143 55 83 7.0 15.0 0.00 0.00 0.00 33 1012.5
20260505231643 56 108 4.0 12.0 0.00 0.00 0.00 32 1012.5
20260505230143 56 145 2.0 6.0 0.00 0.00 0.00 33 1013.0
20260505224643 55 321 4.0 5.0 0.00 0.00 0.00 34 1013.0
20260505223143 55 355 3.0 9.0 0.00 0.00 0.00 33 1013.0
20260505221643 55 57 4.0 8.0 0.00 0.00 0.00 33 1013.2
20260505220143 55 47 4.0 8.0 0.00 0.00 0.00 35 1013.3
20260505214643 54 92 5.0 10.0 0.00 0.00 0.00 33 1013.7
20260505213143 54 80 4.0 8.0 0.00 0.00 0.00 34 1013.6
20260505211643 54 38 6.0 13.0 0.00 0.00 0.00 34 1013.7
20260505210143 53 51 7.0 12.0 0.00 0.00 0.00 35 1014.1
20260505204643 53 92 5.0 10.0 0.00 0.00 0.00 37 1013.9
20260505203143 53 55 7.0 17.0 0.00 0.00 0.00 36 1014.0
20260505201643 54 63 7.0 13.0 0.00 0.00 0.00 35 1014.1
20260505200143 54 126 4.0 8.0 0.00 0.00 0.00 32 1013.9
20260505194643 54 345 3.0 5.0 0.00 0.00 0.00 33 1014.1
20260505193143 53 327 4.0 11.0 0.00 0.00 0.00 32 1014.4
20260505191643 53 289 4.0 10.0 0.00 0.00 0.00 33 1014.1
20260505190143 52 349 5.0 9.0 0.00 0.00 0.00 33 1014.3
20260505184643 52 304 3.0 9.0 0.00 0.00 0.00 32 1014.5
20260505183143 53 319 3.0 8.0 0.00 0.00 0.00 32 1014.3
20260505181643 52 320 3.0 6.0 0.00 0.00 0.00 35 1014.6
20260505180143 51 355 4.0 6.0 0.00 0.00 0.00 35 1014.2
20260505174643 51 329 5.0 8.0 0.00 0.00 0.00 39 1014.3